Weather History for Abilene Dyess, TX

Change the Weather History Date:

Monday, November 12, 2012

  Actual Average Record
Temperature  
Mean Temperature 40 °F -  
Max Temperature 54 °F 64 °F 79 °F (2007)
Min Temperature 27 °F 45 °F 27 °F (2012)
Degree Days  
Heating Degree Days 24    
Moisture  
Dew Point 22 °F    
Average Humidity 53    
Maximum Humidity 86    
Minimum Humidity 26    
Precipitation  
Precipitation 0.00 in - - ()
Sea Level Pressure  
Sea Level Pressure 30.45 in    
Wind  
Wind Speed 3 mph (ENE)    
Max Wind Speed 8 mph    
Max Gust Speed -    
Visibility 10 miles    
Events      
Averages and records for this station are not official NWS values.
T = Trace of Precipitation, MM = Missing Value Source: NWS Daily Summary

Daily Weather History Graph

Daily Weather History Graph

Search for Another Location

Airport:

Trip Planner

Search our weather history database for the weather conditions in past years. The results will help you decide how hot, cold, wet, or windy it might be!

Date:

Astronomy

Nov. 12, 2012 Rise Set
Actual Time 7:06 AM CST 5:40 PM CST
Civil Twilight 6:40 AM CST 6:06 PM CST
Nautical Twilight 6:11 AM CST 6:35 PM CST
Astronomical Twilight 5:42 AM CST 7:04 PM CST
Moon 5:36 AM CST (11/12) 4:45 PM CST (11/12)
Length of Visible Light 11h 25m
Length of Day
10h 33m
Waning Crescent, 2% of the Moon is Illuminated
Nov 12
Waning Crescent
Nov 13
New
Nov 20
First Quarter
Nov 28
Full
Dec 6
Last Quarter

Hourly Weather History & Observations

Time (CST) Temp. Windchill Dew Point Humidity Pressure Visibility Wind Dir Wind Speed Gust Speed Precip Events Conditions
12:55 AM 37.9 °F 34.4 °F 30.4 °F 74% 30.31 in 10.0 mi North 4.6 mph - N/A   Clear
1:55 AM 34.5 °F - 28.0 °F 77% 30.33 in 10.0 mi Calm Calm - N/A   Clear
2:55 AM 33.4 °F 29.1 °F 28.6 °F 82% 30.35 in 10.0 mi NW 4.6 mph - N/A   Clear
3:55 AM 32.9 °F 26.7 °F 27.5 °F 81% 30.37 in 10.0 mi NNW 6.9 mph - N/A   Clear
4:55 AM 31.1 °F 27.7 °F 26.4 °F 83% 30.39 in 10.0 mi North 3.5 mph - N/A   Clear
5:55 AM 28.9 °F - 25.0 °F 85% 30.44 in 10.0 mi Calm Calm - N/A   Clear
6:55 AM 27.5 °F 22.2 °F 23.9 °F 86% 30.46 in 10.0 mi NNW 4.6 mph - N/A   Clear
7:55 AM 32.7 °F - 27.0 °F 79% 30.48 in 10.0 mi Calm Calm - N/A   Clear
8:55 AM 39.4 °F 35.2 °F 27.1 °F 62% 30.48 in 10.0 mi East 5.8 mph - N/A   Clear
9:55 AM 43.9 °F 39.3 °F 16.9 °F 34% 30.50 in 10.0 mi NE 8.1 mph - N/A   Clear
10:55 AM 46.2 °F 43.3 °F 18.1 °F 33% 30.51 in 10.0 mi ENE 5.8 mph - N/A   Clear
11:55 AM 48.7 °F - 17.1 °F 28% 30.50 in 10.0 mi ENE 5.8 mph - N/A   Clear
12:55 PM 51.1 °F - 18.3 °F 27% 30.48 in 10.0 mi Calm Calm - N/A   Clear
1:55 PM 52.5 °F - 18.7 °F 26% 30.46 in 10.0 mi Calm Calm - N/A   Clear
2:55 PM 53.4 °F - 19.0 °F 26% 30.45 in 10.0 mi Variable 4.6 mph - N/A   Clear
3:55 PM 54.1 °F - 19.8 °F 26% 30.44 in 10.0 mi Calm Calm - N/A   Clear
4:55 PM 53.2 °F - 19.6 °F 27% 30.43 in 10.0 mi Calm Calm - N/A   Clear
5:55 PM 50.5 °F - 20.3 °F 30% 30.43 in 10.0 mi ENE 3.5 mph - N/A   Clear
6:55 PM 45.7 °F 44.4 °F 21.7 °F 39% 30.45 in 10.0 mi East 3.5 mph - N/A   Clear
7:55 PM 43.7 °F 42.1 °F 22.3 °F 43% 30.47 in 10.0 mi East 3.5 mph - N/A   Clear
8:55 PM 36.1 °F 33.5 °F 18.9 °F 50% 30.49 in 10.0 mi South 3.5 mph - N/A   Clear
9:55 PM 35.4 °F 32.6 °F 20.1 °F 54% 30.49 in 10.0 mi South 3.5 mph - N/A   Clear
10:55 PM 35.2 °F 32.4 °F 19.8 °F 53% 30.50 in 8.0 mi SSE 3.5 mph - N/A   Clear
11:55 PM 28.4 °F 23.3 °F 20.8 °F 73% 30.50 in 3.0 mi South 4.6 mph - N/A   Haze